Whiteman AFB, MO

6:25 AM CST on February 27, 2017 (GMT -0600)
Whiteman Air Force Base

Weather History for KSZL - August, 2013

Change the Weather History Date:

Friday, August 16, 2013

  Actual Average Record
Temperature  
Mean Temperature 66 °F -  
Max Temperature 76 °F 86 °F 100 °F (1999)
Min Temperature 57 °F 66 °F 55 °F (2004)
Cooling Degree Days 1    
Growing Degree Days 16 (Base 50)    
Moisture  
Dew Point 59 °F    
Average Humidity 77    
Maximum Humidity 100    
Minimum Humidity 51    
Precipitation  
Precipitation 0.00 in - - ()
Sea Level Pressure  
Sea Level Pressure 30.15 in    
Wind  
Wind Speed 4 mph (East)    
Max Wind Speed 9 mph    
Max Gust Speed -    
Visibility 10 miles    
Events      
Averages and records for this station are not official NWS values.
T = Trace of Precipitation, MM = Missing Value Source: NWS Daily Summary

Daily Weather History Graph

Daily Weather History Graph

Search for Another Location

Airport or City:

Trip Planner

Search our weather history database for the weather conditions in past years. The results will help you decide how hot, cold, wet, or windy it might be!

Date:

Astronomy

Aug. 16, 2013 Rise Set
Actual Time 6:29 AM CDT 8:06 PM CDT
Civil Twilight 6:00 AM CDT 8:35 PM CDT
Nautical Twilight 5:26 AM CDT 9:09 PM CDT
Astronomical Twilight 4:50 AM CDT 9:45 PM CDT
Moon 4:25 PM CDT (8/16) 1:33 AM CDT (8/16)
Length of Visible Light 14h 34m
Length of Day
13h 37m
Waxing Gibbous, 75% of the Moon is Illuminated
Aug 16
Waxing Gibbous
Aug 20
Full
Aug 28
Last Quarter
Sep 5
New
Sep 12
First Quarter

Hourly Weather History & Observations

Time (CDT) Temp. Dew Point Humidity Pressure Visibility Wind Dir Wind Speed Gust Speed Precip Events Conditions
12:58 AM 62.4 °F 58.5 °F 87% 30.11 in 10.0 mi ESE 1.2 mph - N/A   Scattered Clouds
1:58 AM 60.6 °F 58.8 °F 94% 30.10 in 9.0 mi East 4.6 mph - N/A   Clear
2:58 AM 59.5 °F 58.3 °F 96% 30.09 in 10.0 mi East 4.6 mph - N/A   Clear
3:58 AM 59.0 °F 58.6 °F 99% 30.11 in 10.0 mi ESE 3.5 mph - N/A   Clear
4:58 AM 58.8 °F 58.6 °F 99% 30.11 in 10.0 mi ENE 4.6 mph - N/A   Mostly Cloudy
5:58 AM 58.5 °F 58.5 °F 100% 30.12 in 10.0 mi East 3.5 mph - N/A   Scattered Clouds
6:58 AM 57.9 °F 57.6 °F 99% 30.12 in 10.0 mi East 4.6 mph - N/A   Scattered Clouds
7:58 AM 59.2 °F 59.0 °F 99% 30.14 in 10.0 mi East 4.6 mph - N/A   Partly Cloudy
8:58 AM 63.3 °F 60.8 °F 91% 30.16 in 10.0 mi East 4.6 mph - N/A   Clear
9:50 AM 68.0 °F 60.8 °F 78% 30.16 in 10.0 mi East 4.6 mph - N/A   Light Drizzle
9:53 AM 68.0 °F 60.8 °F 78% 30.16 in 10.0 mi ENE 4.6 mph - N/A   Clear
9:58 AM 67.8 °F 60.4 °F 77% 30.16 in 10.0 mi ESE 4.6 mph - 0.00 in   Clear
9:59 AM 68.0 °F 60.8 °F 78% 30.16 in 10.0 mi East 4.6 mph - N/A   Light Drizzle
10:00 AM 68.0 °F 60.8 °F 78% 30.16 in 10.0 mi East 3.5 mph - N/A   Clear
10:02 AM 68.0 °F 60.8 °F 78% 30.16 in 10.0 mi Variable 3.5 mph - N/A   Light Drizzle
10:16 AM 69.8 °F 59.0 °F 68% 30.16 in 10.0 mi East 4.6 mph - N/A   Clear
10:19 AM 69.8 °F 59.0 °F 68% 30.16 in 10.0 mi Variable 1.2 mph - N/A   Light Drizzle
10:37 AM 69.8 °F 59.0 °F 68% 30.16 in 10.0 mi ESE 3.5 mph - N/A   Clear
10:58 AM 71.2 °F 59.2 °F 66% 30.16 in 10.0 mi Variable 2.3 mph - 0.00 in   Clear
10:59 AM 71.6 °F 59.0 °F 64% 30.16 in 10.0 mi SE 5.8 mph - N/A   Light Drizzle
11:15 AM 71.6 °F 59.0 °F 64% 30.17 in 10.0 mi East 5.8 mph - N/A   Clear
11:58 AM 73.2 °F 58.8 °F 61% 30.16 in 10.0 mi ENE 6.9 mph - N/A   Scattered Clouds
12:58 PM 73.9 °F 57.6 °F 56% 30.16 in 10.0 mi ESE 8.1 mph - N/A   Scattered Clouds
1:58 PM 74.1 °F 58.6 °F 58% 30.14 in 10.0 mi East 9.2 mph - N/A   Scattered Clouds
2:58 PM 75.0 °F 56.8 °F 53% 30.14 in 10.0 mi NNE 5.8 mph - N/A   Scattered Clouds
3:58 PM 74.1 °F 56.7 °F 54% 30.13 in 10.0 mi Variable 5.8 mph - N/A   Scattered Clouds
4:58 PM 73.2 °F 57.9 °F 59% 30.14 in 10.0 mi ENE 3.5 mph - N/A   Scattered Clouds
5:58 PM 75.9 °F 56.8 °F 51% 30.14 in 10.0 mi East 9.2 mph - N/A   Scattered Clouds
6:58 PM 72.9 °F 57.6 °F 59% 30.14 in 10.0 mi East 3.5 mph - N/A   Clear
7:58 PM 69.8 °F 57.9 °F 66% 30.14 in 10.0 mi ENE 2.3 mph - N/A   Clear
8:58 PM 62.8 °F 59.4 °F 89% 30.15 in 10.0 mi NE 3.5 mph - N/A   Clear
9:58 PM 61.9 °F 57.2 °F 85% 30.16 in 10.0 mi ENE 3.5 mph - N/A   Clear
10:48 PM 60.8 °F 57.2 °F 88% 30.16 in 9.0 mi ENE 3.5 mph - N/A   Clear
10:53 PM 60.8 °F 57.2 °F 88% 30.16 in 9.0 mi ENE 2.3 mph - N/A   Clear
10:58 PM 60.6 °F 56.8 °F 87% 30.16 in 10.0 mi Calm Calm - N/A   Clear
11:58 PM 58.5 °F 57.9 °F 98% 30.17 in 10.0 mi Calm Calm - N/A   Clear